LiveATC.Net - Listen to live air traffic control over the Internet!


ICAO: KCCB  IATA: CCB   Airport: Cable Airport
City: Upland   State/Province: California
Country: United States   Continent: North America
KPOC METAR Weather: KPOC 120247Z 00000KT 10SM CLR 12/06 A3017
KCCB Flight Activity (FlightAware)
KCCB Airport Info   (iFlightPlanner)
KCCB VFR Sectional Chart   (iFlightPlanner) 
KCCB IFR Low Chart   (iFlightPlanner) 

KCCB CTAF
Feed Status: UP   Listeners: 0
Listen in your browser - HTML5 player (in browser, HTML5)
Click here to listen with your own player (launches your MP3 player)
Archive Access: KCCB CTAF
FacilityFrequency
Upland CTAF123.000

NOTICE

Unauthorized use prohibited. See LiveATC.net Terms of Service


Airport/ARTCC Code
Frequency Search
(e.g., 124.400, 128.75)
Site-wide search
 


Browse Feeds
Top 50 Feeds
Coverage Map
Bad Weather Areas

LiveATC FAQ
Offer LiveATC feed
Contact LiveATC.net
Press Inquiries

LiveATC on iPhone
LiveATC on Android

Windows Phone
Windows 8/10

LiveATC Mobile
(Mobile browser)

ATC Audio Archives
Interesting Recordings

LiveATC Forums


Home Page
About LiveATC.net
Make a Donation
Terms of Use
Privacy Policy

Canadian Air Freqs

AIRMETs/SIGMETs

FAA Airport Status
Nat'l Airspace Status
Arrival Demand Charts


Server Software By:
Icecast.org
Liquidsoap